WA7BMK Weather Reports


Display with metric or nautical units.
time (UTC)temp
F
wind
direction
speed
MPH
gust
MPH
rain 1hr
in
rain 24hr
in
rain mn
in
humidity
%
barometer
mb
20260509201540 65 250 2.0 5.0 0.00 0.00 0.00 60 1020.2
20260509200035 65 288 3.0 7.0 0.00 0.00 0.00 62 1020.3
20260509194530 64 23 2.0 6.0 0.00 0.00 0.00 63 1020.4
20260509193039 66 297 2.0 5.0 0.00 0.00 0.00 61 1020.7
20260509191540 66 333 0.0 4.0 0.00 0.00 0.00 62 1020.7
20260509190036 65 0 1.0 5.0 0.00 0.00 0.00 63 1020.7
20260509184541 64 123 1.0 7.0 0.00 0.00 0.00 64 1020.9
20260509183036 65 334 1.0 5.0 0.00 0.00 0.00 63 1020.9
20260509181537 65 112 2.0 6.0 0.00 0.00 0.00 61 1020.9
20260509180036 63 239 1.0 5.0 0.00 0.00 0.00 64 1020.9
20260509174535 63 209 0.0 2.0 0.00 0.00 0.00 65 1021.1
20260509173033 62 313 0.0 4.0 0.00 0.00 0.00 66 1021.3
20260509171537 62 340 1.0 4.0 0.00 0.00 0.00 67 1021.4
20260509170044 60 164 0.0 5.0 0.00 0.00 0.00 69 1021.4
20260509164541 60 0 0.0 2.0 0.00 0.00 0.00 69 1021.5
20260509163052 59 139 2.0 6.0 0.00 0.00 0.00 70 1021.7
20260509161544 59 111 1.0 7.0 0.00 0.00 0.00 73 1021.8
20260509160032 59 155 0.0 6.0 0.00 0.00 0.00 74 1021.9
20260509154539 58 0 0.0 6.0 0.00 0.00 0.00 77 1022.0
20260509153041 57 0 1.0 4.0 0.00 0.00 0.00 78 1022.1
20260509151537 55 0 0.0 3.0 0.00 0.00 0.00 82 1022.2
20260509150034 54 116 2.0 6.0 0.00 0.00 0.00 83 1022.2
20260509144532 53 134 1.0 4.0 0.00 0.00 0.00 86 1022.5
20260509143043 52 0 1.0 4.0 0.00 0.00 0.00 90 1022.5
20260509141536 49 108 0.0 2.0 0.00 0.00 0.00 92 1022.6
20260509140032 46 0 0.0 0.0 0.00 0.00 0.00 92 1022.5
20260509134534 45 0 0.0 0.0 0.00 0.00 0.00 92 1022.7
20260509133031 44 0 0.0 0.0 0.00 0.00 0.00 91 1022.8
20260509131534 44 0 0.0 0.0 0.00 0.00 0.00 91 1022.7
20260509130032 44 0 0.0 0.0 0.00 0.00 0.00 91 1022.7
20260509124540 44 0 0.0 0.0 0.00 0.00 0.00 91 1022.7
20260509123039 45 0 0.0 0.0 0.00 0.00 0.00 90 1022.6
20260509121546 45 0 0.0 0.0 0.00 0.00 0.00 91 1022.5
20260509120030 45 0 0.0 0.0 0.00 0.00 0.00 90 1022.8
20260509114552 45 0 0.0 0.0 0.00 0.00 0.00 90 1022.8
20260509113033 45 0 0.0 0.0 0.00 0.00 0.00 90 1022.8
20260509111535 46 0 0.0 0.0 0.00 0.00 0.00 89 1022.8
20260509110034 46 0 0.0 0.0 0.00 0.00 0.00 89 1022.9
20260509104530 47 0 0.0 0.0 0.00 0.00 0.00 88 1022.9
20260509103036 48 0 0.0 0.0 0.00 0.00 0.00 88 1023.0
20260509101537 48 0 0.0 0.0 0.00 0.00 0.00 88 1023.1
20260509100036 49 0 0.0 0.0 0.00 0.00 0.00 89 1023.1
20260509094544 49 0 0.0 0.0 0.00 0.00 0.00 88 1023.3
20260509093032 49 0 0.0 0.0 0.00 0.00 0.00 88 1023.4
20260509091535 49 0 0.0 0.0 0.00 0.00 0.00 88 1023.5
20260509090054 49 0 0.0 0.0 0.00 0.00 0.00 88 1023.5
20260509084539 49 0 0.0 0.0 0.00 0.00 0.00 88 1023.6
20260509083046 49 0 0.0 0.0 0.00 0.00 0.00 88 1023.6
20260509081531 49 0 0.0 0.0 0.00 0.00 0.00 88 1023.6
20260509080052 49 0 0.0 0.0 0.00 0.00 0.00 87 1023.6
20260509074537 49 0 0.0 0.0 0.00 0.00 0.00 87 1023.6
20260509073031 49 0 0.0 0.0 0.00 0.00 0.00 86 1023.6
20260509071532 49 0 0.0 0.0 0.00 0.00 0.00 86 1023.4
20260509070038 49 0 0.0 0.0 0.00 0.00 0.00 86 1023.5
20260509064536 49 0 0.0 0.0 0.00 0.00 0.00 84 1023.5
20260509063035 50 0 0.0 0.0 0.00 0.00 0.00 83 1023.4
20260509061531 51 0 0.0 0.0 0.00 0.00 0.00 82 1023.2
20260509060037 51 0 0.0 0.0 0.00 0.00 0.00 82 1023.2
20260509054536 51 0 0.0 0.0 0.00 0.00 0.00 82 1023.2
20260509053043 51 0 0.0 0.0 0.00 0.00 0.00 81 1023.2
20260509051539 51 0 0.0 0.0 0.00 0.00 0.00 80 1023.1
20260509050049 52 0 0.0 0.0 0.00 0.00 0.00 79 1023.1
20260509044537 52 0 0.0 0.0 0.00 0.00 0.00 78 1023.0
20260509043043 53 0 0.0 0.0 0.00 0.00 0.00 78 1023.0
20260509041538 53 0 0.0 4.0 0.00 0.00 0.00 77 1022.9
20260509040039 53 196 0.0 3.0 0.00 0.00 0.00 76 1022.7
20260509034535 54 0 0.0 2.0 0.00 0.00 0.00 75 1022.6
20260509033039 55 0 0.0 2.0 0.00 0.00 0.00 73 1022.5
20260509031538 55 329 0.0 4.0 0.00 0.00 0.00 72 1022.4
20260509030036 56 316 0.0 4.0 0.00 0.00 0.00 70 1022.2
20260509024539 57 0 0.0 6.0 0.00 0.00 0.00 69 1022.0
20260509023031 58 247 2.0 9.0 0.00 0.00 0.00 68 1022.0
20260509021537 59 332 1.0 8.0 0.00 0.00 0.00 65 1022.0
20260509020038 61 0 0.0 5.0 0.00 0.00 0.00 64 1021.9
20260509014536 61 330 2.0 5.0 0.00 0.00 0.00 62 1021.9
20260509013041 60 329 0.0 6.0 0.00 0.00 0.00 63 1021.9
20260509011538 61 292 1.0 8.0 0.00 0.00 0.00 60 1021.9
20260509010037 62 5 2.0 10.0 0.00 0.00 0.00 59 1021.9
20260509004546 61 211 2.0 13.0 0.00 0.00 0.00 59 1021.9
20260509003036 61 342 2.0 7.0 0.00 0.00 0.00 60 1022.0
20260509001533 62 260 2.0 10.0 0.00 0.00 0.00 58 1022.1
20260509000041 63 281 2.0 7.0 0.00 0.00 0.00 56 1021.9
20260508234537 62 192 1.0 8.0 0.00 0.00 0.00 57 1021.9
20260508233036 62 87 1.0 6.0 0.00 0.00 0.00 59 1021.9
20260508231543 62 215 1.0 11.0 0.00 0.00 0.00 56 1021.7
20260508230036 63 315 2.0 10.0 0.00 0.00 0.00 58 1021.8
20260508224555 63 0 2.0 6.0 0.00 0.00 0.00 54 1021.9
20260508223036 62 148 2.0 10.0 0.00 0.00 0.00 58 1021.7
20260508221545 62 290 3.0 8.0 0.00 0.00 0.00 56 1021.8
20260508220036 61 195 2.0 10.0 0.00 0.00 0.00 56 1021.6
20260508214540 61 236 2.0 8.0 0.00 0.00 0.00 57 1021.8
20260508213038 60 0 4.0 15.0 0.00 0.00 0.00 59 1021.9
20260508211537 60 208 3.0 9.0 0.00 0.00 0.00 58 1021.9
20260508210037 60 148 2.0 10.0 0.00 0.00 0.00 60 1022.1
20260508204536 59 331 2.0 9.0 0.00 0.00 0.00 62 1021.6
20260508203036 58 181 3.0 11.0 0.00 0.00 0.00 61 1021.6